Location: Ferques
(50.8300°N, 1.7599°E)
Time: 05:31:30
(UTC+00:00)

ALOS 2 - Pass Details

Date: 19 May 2025
Orbit: 630 x 632 km, 97.9° (Epoch: 13 June)

Event Time Altitude Azimuth Distance (km) Brightness Sun altitude
Exits shadow 22:18:51 19° 112° (ESE) 1,494 4.1 -16.4°
Maximum altitude 22:21:07 31° 65° (ENE) 1,121 3.9 -16.6°
Drops below altitude 10° 22:24:59 10° 4° (N) 2,027 6.2 -16.8°
Sets 22:27:22 0° 354° (N) 2,939 7.6 -16.9°
